IRIDIUM 83

Last updated on Wed Nov 29 2017 00:19:03 GMT+0000 (Coordinated Universal Time)

1 25531U 98066E 17332.48142071 .00000147 00000-0 45442-4 0 9993 2 25531 86.3948 281.3762 0002147 83.3011 276.8429 14.34219011997903

Satellite not in orbit

IRIDIUM 83